QPF
0.00 0.00 0.01 0.01 0.01 0.01 0.01 0.01 0.01 0.00 0.00 0.01 0.01 0.01 0.02 0.04 0.04 0.03 0.03 0.03 0.02 0.02 0.02 0.02 0.01 0.01 0.01 0.02 0.03 0.04 0.05 0.06 0.08 0.08 0.07 0.06 0.06 0.05 0.04 0.03 0.03 0.02 0.02 0.03
0.00 0.00 0.01 0.01 0.01 0.01 0.01 0.01 0.00 0.00 0.00 0.00 0.00 0.01 0.00 0.01 0.02 0.03 0.02 0.03 0.03 0.03 0.03 0.02 0.01 0.01 0.01 0.02 0.02 0.03 0.05 0.07 0.07 0.08 0.08 0.08 0.08 0.06 0.05 0.03 0.03 0.03 0.03 0.03
0.01 0.00 0.01 0.01 0.01 0.01 0.01 0.01 0.00 0.00 0.00 0.00 0.01 0.01 0.01 0.01 0.02 0.02 0.02 0.03 0.03 0.03 0.02 0.02 0.01 0.01 0.01 0.01 0.01 0.01 0.02 0.05 0.06 0.05 0.06 0.07 0.06 0.04 0.04 0.04 0.04 0.04 0.04 0.06
0.01 0.01 0.01 0.00 0.00 0.00 0.01 0.01 0.01 0.01 0.01 0.01 0.01 0.01 0.02 0.02 0.02 0.03 0.03 0.02 0.03 0.03 0.03 0.03 0.02 0.01 0.01 0.01 0.01 0.02 0.01 0.02 0.03 0.03 0.03 0.03 0.03 0.04 0.05 0.07 0.06 0.05 0.07 0.09
0.02 0.01 0.00 0.00 0.00 0.00 0.01 0.01 0.01 0.01 0.01 0.01 0.02 0.01 0.01 0.02 0.02 0.03 0.04 0.03 0.02 0.02 0.03 0.04 0.03 0.03 0.02 0.01 0.01 0.01 0.02 0.02 0.02 0.02 0.02 0.01 0.02 0.03 0.04 0.07 0.05 0.06 0.07 0.07
0.01 0.01 0.01 0.01 0.00 0.01 0.01 0.02 0.01 0.00 0.00 0.01 0.01 0.02 0.02 0.02 0.02 0.03 0.04 0.03 0.03 0.03 0.02 0.03 0.03 0.04 0.04 0.02 0.01 0.01 0.01 0.01 0.01 0.01 0.02 0.01 0.03 0.05 0.05 0.04 0.02 0.02 0.03 0.02
0.02 0.02 0.01 0.01 0.00 0.01 0.01 0.01 0.01 0.00 0.01 0.01 0.01 0.02 0.02 0.02 0.02 0.02 0.03 0.03 0.04 0.05 0.04 0.04 0.04 0.05 0.04 0.02 0.01 0.01 0.01 0.01 0.01 0.01 0.02 0.02 0.03 0.04 0.04 0.02 0.01 0.01 0.01 0.00
0.02 0.03 0.03 0.01 0.01 0.02 0.01 0.01 0.01 0.01 0.01 0.01 0.01 0.01 0.02 0.03 0.03 0.03 0.03 0.04 0.04 0.05 0.05 0.05 0.05 0.05 0.04 0.02 0.01 0.01 0.01 0.01 0.00 0.01 0.02 0.03 0.03 0.03 0.02 0.01 0.01 0.01 0.01 0.01
0.02 0.03 0.03 0.02 0.02 0.01 0.01 0.01 0.01 0.01 0.01 0.01 0.01 0.01 0.02 0.02 0.02 0.02 0.03 0.03 0.04 0.04 0.04 0.05 0.05 0.06 0.05 0.03 0.02 0.01 0.01 0.00 0.00 0.01 0.03 0.04 0.04 0.02 0.01 0.00 0.00 0.00 0.01 0.01
0.02 0.02 0.02 0.01 0.01 0.01 0.01 0.01 0.01 0.01 0.01 0.02 0.02 0.02 0.02 0.01 0.02 0.02 0.02 0.02 0.03 0.04 0.04 0.04 0.05 0.06 0.05 0.03 0.02 0.01 0.01 0.01 0.01 0.02 0.05 0.04 0.03 0.01 0.00 0.00 0.00 0.00 0.01 0.01
0.02 0.01 0.01 0.01 0.00 0.00 0.01 0.01 0.01 0.01 0.02 0.02 0.03 0.03 0.02 0.02 0.02 0.02 0.02 0.02 0.02 0.03 0.05 0.05 0.06 0.06 0.05 0.03 0.02 0.02 0.02 0.01 0.02 0.05 0.05 0.02 0.01 0.01 0.00 0.00 0.00 0.00 0.00 0.00
0.02 0.03 0.03 0.02 0.01 0.01 0.00 0.00 0.01 0.01 0.01 0.02 0.03 0.03 0.02 0.02 0.02 0.01 0.01 0.02 0.02 0.03 0.05 0.05 0.05 0.07 0.06 0.04 0.03 0.02 0.02 0.03 0.04 0.06 0.04 0.02 0.01 0.00 0.00 0.00 0.00 0.00 0.00 0.00
0.03 0.03 0.03 0.01 0.01 0.01 0.00 0.00 0.01 0.01 0.01 0.02 0.02 0.02 0.02 0.01 0.02 0.02 0.01 0.01 0.02 0.03 0.05 0.05 0.05 0.06 0.05 0.04 0.03 0.03 0.03 0.04 0.05 0.05 0.04 0.01 0.01 0.00 0.00 0.00 0.00 0.00 0.01 0.01
0.02 0.01 0.01 0.01 0.00 0.00 0.00 0.00 0.00 0.01 0.01 0.01 0.01 0.02 0.01 0.01 0.01 0.02 0.02 0.02 0.02 0.03 0.04 0.05 0.04 0.04 0.03 0.03 0.03 0.03 0.03 0.04 0.04 0.04 0.02 0.01 0.01 0.00 0.00 0.00 0.00 0.00 0.01 0.01
0.01 0.01 0.01 0.00 0.00 0.00 0.00 0.00 0.01 0.01 0.01 0.01 0.01 0.01 0.01 0.01 0.01 0.02 0.02 0.02 0.02 0.03 0.04 0.04 0.04 0.02 0.02 0.02 0.02 0.02 0.02 0.02 0.02 0.01 0.01 0.01 0.00 0.00 0.00 0.00 0.00 0.00 0.00 0.00
0.01 0.01 0.01 0.01 0.01 0.00 0.00 0.01 0.01 0.02 0.02 0.01 0.01 0.01 0.01 0.01 0.01 0.01 0.02 0.02 0.02 0.03 0.03 0.03 0.03 0.02 0.01 0.01 0.01 0.01 0.01 0.01 0.02 0.01 0.00 0.00 0.00 0.01 0.00 0.00 0.00 0.00 0.00 0.00
0.02 0.02 0.02 0.02 0.01 0.01 0.01 0.01 0.02 0.02 0.01 0.01 0.02 0.01 0.01 0.01 0.01 0.01 0.02 0.02 0.03 0.02 0.02 0.02 0.02 0.01 0.01 0.01 0.01 0.01 0.00 0.01 0.01 0.01 0.00 0.00 0.01 0.01 0.01 0.00 0.00 0.01 0.00 0.01
0.03 0.03 0.03 0.03 0.02 0.01 0.01 0.01 0.02 0.01 0.01 0.01 0.01 0.01 0.01 0.01 0.01 0.01 0.01 0.02 0.02 0.01 0.01 0.01 0.01 0.01 0.01 0.01 0.01 0.01 0.00 0.00 0.00 0.00 0.00 0.00 0.00 0.01 0.00 0.00 0.00 0.00 0.01 0.01
0.03 0.04 0.03 0.03 0.02 0.01 0.01 0.01 0.01 0.01 0.01 0.01 0.01 0.01 0.01 0.01 0.00 0.01 0.01 0.02 0.02 0.01 0.01 0.01 0.01 0.01 0.01 0.01 0.01 0.01 0.01 0.00 0.00 0.00 0.00 0.00 0.00 0.00 0.00 0.00 0.00 0.00 0.00 0.00
0.02 0.03 0.03 0.02 0.02 0.02 0.02 0.01 0.01 0.01 0.01 0.01 0.01 0.01 0.01 0.00 0.00 0.01 0.02 0.02 0.02 0.01 0.01 0.01 0.00 0.00 0.01 0.01 0.01 0.01 0.01 0.00 0.00 0.00 0.00 0.00 0.00 0.00 0.00 0.00 0.00 0.00 0.00 0.00
0.01 0.01 0.02 0.02 0.02 0.02 0.03 0.02 0.02 0.01 0.01 0.01 0.01 0.01 0.01 0.00 0.01 0.01 0.02 0.01 0.01 0.01 0.01 0.00 0.00 0.00 0.01 0.01 0.01 0.02 0.02 0.01 0.01 0.00 0.00 0.00 0.00 0.00 0.00 0.00 0.00 0.00 0.01 0.01
0.01 0.01 0.02 0.02 0.02 0.02 0.03 0.03 0.02 0.01 0.01 0.01 0.01 0.01 0.01 0.01 0.01 0.01 0.01 0.01 0.01 0.00 0.00 0.00 0.00 0.00 0.01 0.01 0.01 0.02 0.03 0.02 0.01 0.01 0.01 0.00 0.00 0.00 0.00 0.00 0.01 0.01 0.01 0.01
0.01 0.01 0.02 0.03 0.02 0.01 0.01 0.01 0.01 0.01 0.01 0.01 0.01 0.01 0.01 0.01 0.01 0.01 0.01 0.01 0.00 0.00 0.00 0.00 0.00 0.00 0.00 0.01 0.01 0.02 0.03 0.02 0.01 0.01 0.01 0.00 0.00 0.00 0.00 0.00 0.01 0.01 0.01 0.01
0.02 0.02 0.03 0.02 0.01 0.01 0.01 0.01 0.01 0.01 0.01 0.01 0.01 0.01 0.01 0.01 0.01 0.01 0.01 0.01 0.00 0.00 0.00 0.00 0.00 0.00 0.00 0.00 0.01 0.01 0.02 0.02 0.01 0.01 0.01 0.01 0.00 0.00 0.00 0.00 0.00 0.00 0.00 0.00
0.02 0.02 0.02 0.02 0.01 0.01 0.01 0.01 0.00 0.01 0.01 0.01 0.01 0.01 0.01 0.01 0.01 0.01 0.01 0.01 0.00 0.00 0.00 0.00 0.00 0.00 0.00 0.00 0.00 0.01 0.01 0.01 0.01 0.01 0.01 0.00 0.00 0.00 0.00 0.00 0.00 0.00 0.00 0.00
0.01 0.02 0.02 0.02 0.01 0.01 0.01 0.01 0.01 0.01 0.01 0.01 0.01 0.01 0.01 0.00 0.00 0.01 0.01 0.01 0.00 0.00 0.00 0.00 0.00 0.00 0.00 0.00 0.00 0.01 0.01 0.00 0.00 0.01 0.01 0.01 0.01 0.00 0.00 0.00 0.00 0.00 0.00 0.00
0.01 0.01 0.02 0.01 0.01 0.01 0.01 0.01 0.02 0.02 0.01 0.01 0.01 0.01 0.00 0.00 0.01 0.01 0.01 0.01 0.00 0.00 0.00 0.00 0.00 0.00 0.00 0.00 0.00 0.00 0.00 0.00 0.00 0.00 0.00 0.00 0.01 0.00 0.00 0.00 0.00 0.00 0.00 0.00
MSLP
1009.59 1009.41 1009.36 1009.42 1009.54 1009.69 1009.79 1009.84 1009.81 1009.71 1009.59 1009.48 1009.44 1009.52 1009.77 1010.18 1010.76 1011.47 1012.26 1013.08 1013.88 1014.62 1015.26 1015.81 1016.25 1016.62 1016.91 1017.15 1017.32 1017.44 1017.50 1017.48 1017.37 1017.19 1016.94 1016.63 1016.29 1015.95 1015.60 1015.28 1014.97 1014.67 1014.35 1014.01
1009.76 1009.44 1009.21 1009.05 1008.94 1008.85 1008.77 1008.69 1008.62 1008.55 1008.53 1008.57 1008.71 1008.97 1009.35 1009.87 1010.49 1011.18 1011.92 1012.66 1013.37 1014.03 1014.63 1015.17 1015.64 1016.06 1016.42 1016.73 1016.97 1017.14 1017.22 1017.21 1017.10 1016.91 1016.64 1016.33 1015.99 1015.64 1015.31 1014.99 1014.68 1014.36 1014.02 1013.65
1009.83 1009.43 1009.06 1008.71 1008.40 1008.12 1007.87 1007.68 1007.55 1007.51 1007.56 1007.73 1008.03 1008.44 1008.96 1009.56 1010.22 1010.91 1011.60 1012.27 1012.90 1013.49 1014.04 1014.56 1015.04 1015.49 1015.90 1016.27 1016.56 1016.77 1016.88 1016.88 1016.78 1016.59 1016.32 1016.00 1015.66 1015.32 1014.99 1014.67 1014.35 1014.02 1013.66 1013.26
1009.81 1009.36 1008.90 1008.42 1007.95 1007.50 1007.12 1006.82 1006.64 1006.60 1006.71 1006.98 1007.40 1007.93 1008.56 1009.24 1009.94 1010.63 1011.28 1011.89 1012.46 1012.99 1013.49 1013.98 1014.46 1014.93 1015.37 1015.77 1016.11 1016.35 1016.49 1016.51 1016.43 1016.24 1015.98 1015.67 1015.34 1015.00 1014.67 1014.35 1014.02 1013.68 1013.29 1012.86
1009.73 1009.26 1008.73 1008.16 1007.57 1007.00 1006.50 1006.11 1005.88 1005.82 1005.97 1006.29 1006.79 1007.41 1008.12 1008.86 1009.60 1010.29 1010.93 1011.51 1012.03 1012.52 1012.99 1013.45 1013.92 1014.40 1014.86 1015.28 1015.64 1015.92 1016.08 1016.13 1016.07 1015.90 1015.66 1015.36 1015.04 1014.71 1014.38 1014.05 1013.71 1013.34 1012.93 1012.47
1009.61 1009.11 1008.54 1007.90 1007.23 1006.57 1005.98 1005.52 1005.23 1005.16 1005.30 1005.66 1006.20 1006.88 1007.65 1008.43 1009.20 1009.91 1010.55 1011.12 1011.62 1012.09 1012.54 1012.99 1013.46 1013.93 1014.40 1014.84 1015.22 1015.51 1015.70 1015.77 1015.73 1015.59 1015.37 1015.09 1014.78 1014.46 1014.13 1013.78 1013.42 1013.03 1012.59 1012.10
1009.46 1008.92 1008.30 1007.61 1006.88 1006.16 1005.51 1005.00 1004.68 1004.58 1004.72 1005.09 1005.66 1006.37 1007.16 1007.99 1008.78 1009.52 1010.18 1010.75 1011.26 1011.73 1012.18 1012.63 1013.09 1013.56 1014.03 1014.47 1014.85 1015.16 1015.36 1015.45 1015.43 1015.31 1015.11 1014.85 1014.55 1014.23 1013.89 1013.53 1013.15 1012.72 1012.25 1011.74
1009.27 1008.67 1008.00 1007.27 1006.50 1005.75 1005.08 1004.55 1004.21 1004.10 1004.24 1004.61 1005.19 1005.91 1006.73 1007.58 1008.41 1009.17 1009.86 1010.46 1010.99 1011.47 1011.93 1012.38 1012.84 1013.30 1013.76 1014.19 1014.56 1014.86 1015.06 1015.16 1015.15 1015.05 1014.87 1014.62 1014.33 1014.01 1013.66 1013.28 1012.86 1012.41 1011.91 1011.37
1009.00 1008.34 1007.62 1006.85 1006.07 1005.33 1004.66 1004.15 1003.83 1003.73 1003.88 1004.26 1004.85 1005.59 1006.42 1007.29 1008.13 1008.93 1009.64 1010.27 1010.83 1011.33 1011.80 1012.26 1012.71 1013.15 1013.59 1013.99 1014.33 1014.61 1014.80 1014.88 1014.88 1014.78 1014.60 1014.36 1014.07 1013.74 1013.38 1012.98 1012.54 1012.06 1011.54 1010.98
1008.64 1007.89 1007.13 1006.36 1005.60 1004.89 1004.29 1003.82 1003.55 1003.51 1003.69 1004.09 1004.69 1005.44 1006.28 1007.15 1008.01 1008.82 1009.55 1010.21 1010.79 1011.30 1011.78 1012.23 1012.66 1013.07 1013.47 1013.82 1014.13 1014.36 1014.52 1014.59 1014.56 1014.46 1014.28 1014.04 1013.74 1013.41 1013.03 1012.61 1012.15 1011.66 1011.12 1010.55
1008.13 1007.33 1006.56 1005.81 1005.10 1004.47 1003.96 1003.59 1003.41 1003.44 1003.68 1004.12 1004.74 1005.49 1006.32 1007.19 1008.04 1008.85 1009.58 1010.24 1010.83 1011.34 1011.81 1012.23 1012.63 1013.01 1013.35 1013.65 1013.90 1014.09 1014.20 1014.23 1014.19 1014.07 1013.88 1013.64 1013.34 1012.99 1012.61 1012.18 1011.71 1011.20 1010.66 1010.09
1007.47 1006.65 1005.90 1005.21 1004.60 1004.09 1003.70 1003.46 1003.40 1003.53 1003.84 1004.33 1004.97 1005.72 1006.54 1007.37 1008.20 1008.97 1009.69 1010.32 1010.88 1011.38 1011.81 1012.21 1012.56 1012.88 1013.17 1013.42 1013.61 1013.74 1013.82 1013.82 1013.75 1013.62 1013.43 1013.17 1012.87 1012.53 1012.13 1011.70 1011.22 1010.71 1010.17 1009.61
1006.67 1005.89 1005.20 1004.61 1004.12 1003.75 1003.52 1003.43 1003.51 1003.74 1004.14 1004.67 1005.32 1006.06 1006.84 1007.63 1008.40 1009.12 1009.78 1010.37 1010.89 1011.34 1011.73 1012.08 1012.39 1012.67 1012.90 1013.10 1013.25 1013.34 1013.38 1013.36 1013.28 1013.14 1012.95 1012.70 1012.40 1012.05 1011.66 1011.22 1010.74 1010.23 1009.69 1009.13
1005.81 1005.10 1004.50 1004.03 1003.69 1003.48 1003.41 1003.47 1003.68 1004.03 1004.50 1005.07 1005.73 1006.44 1007.17 1007.89 1008.59 1009.23 1009.81 1010.33 1010.78 1011.18 1011.53 1011.84 1012.11 1012.34 1012.54 1012.71 1012.83 1012.90 1012.93 1012.90 1012.82 1012.69 1012.50 1012.26 1011.96 1011.61 1011.22 1010.78 1010.29 1009.77 1009.23 1008.68
1004.96 1004.34 1003.86 1003.52 1003.32 1003.26 1003.34 1003.55 1003.88 1004.33 1004.86 1005.46 1006.11 1006.78 1007.45 1008.09 1008.69 1009.25 1009.74 1010.18 1010.56 1010.91 1011.21 1011.48 1011.72 1011.93 1012.12 1012.28 1012.39 1012.47 1012.51 1012.49 1012.43 1012.30 1012.13 1011.89 1011.60 1011.25 1010.85 1010.39 1009.90 1009.37 1008.81 1008.25
1004.21 1003.69 1003.32 1003.10 1003.02 1003.10 1003.30 1003.63 1004.06 1004.58 1005.16 1005.78 1006.41 1007.04 1007.64 1008.20 1008.71 1009.17 1009.58 1009.94 1010.26 1010.55 1010.81 1011.06 1011.28 1011.50 1011.69 1011.86 1012.00 1012.10 1012.15 1012.16 1012.11 1012.01 1011.84 1011.61 1011.31 1010.95 1010.53 1010.06 1009.54 1008.99 1008.41 1007.83
1003.64 1003.21 1002.92 1002.78 1002.79 1002.96 1003.26 1003.68 1004.18 1004.76 1005.37 1006.00 1006.61 1007.20 1007.74 1008.22 1008.65 1009.03 1009.36 1009.66 1009.92 1010.17 1010.41 1010.64 1010.87 1011.10 1011.31 1011.50 1011.67 1011.79 1011.88 1011.91 1011.88 1011.78 1011.62 1011.38 1011.07 1010.69 1010.24 1009.74 1009.19 1008.60 1007.99 1007.39
1003.31 1002.91 1002.66 1002.56 1002.63 1002.84 1003.20 1003.67 1004.22 1004.84 1005.47 1006.11 1006.71 1007.27 1007.77 1008.20 1008.57 1008.89 1009.16 1009.40 1009.63 1009.85 1010.07 1010.30 1010.54 1010.78 1011.01 1011.23 1011.42 1011.57 1011.67 1011.71 1011.68 1011.58 1011.41 1011.15 1010.81 1010.40 1009.92 1009.38 1008.79 1008.17 1007.53 1006.90
1003.22 1002.81 1002.54 1002.44 1002.50 1002.73 1003.10 1003.60 1004.19 1004.83 1005.49 1006.13 1006.74 1007.29 1007.77 1008.17 1008.51 1008.79 1009.03 1009.24 1009.43 1009.64 1009.85 1010.07 1010.31 1010.56 1010.80 1011.03 1011.22 1011.38 1011.47 1011.51 1011.46 1011.34 1011.13 1010.84 1010.47 1010.02 1009.50 1008.93 1008.31 1007.66 1007.01 1006.36
1003.33 1002.85 1002.53 1002.38 1002.41 1002.61 1002.98 1003.49 1004.09 1004.75 1005.43 1006.10 1006.73 1007.29 1007.77 1008.17 1008.49 1008.76 1008.97 1009.17 1009.35 1009.53 1009.73 1009.95 1010.18 1010.42 1010.65 1010.86 1011.04 1011.17 1011.24 1011.23 1011.15 1010.99 1010.74 1010.41 1010.00 1009.51 1008.97 1008.38 1007.75 1007.09 1006.44 1005.80
1003.56 1002.99 1002.58 1002.36 1002.33 1002.50 1002.85 1003.35 1003.96 1004.64 1005.35 1006.04 1006.69 1007.27 1007.77 1008.18 1008.51 1008.77 1008.98 1009.16 1009.33 1009.50 1009.68 1009.87 1010.08 1010.29 1010.49 1010.66 1010.80 1010.89 1010.91 1010.85 1010.72 1010.51 1010.22 1009.85 1009.41 1008.91 1008.36 1007.77 1007.15 1006.53 1005.90 1005.29
1003.83 1003.16 1002.66 1002.36 1002.28 1002.40 1002.73 1003.21 1003.83 1004.52 1005.25 1005.97 1006.65 1007.25 1007.77 1008.19 1008.52 1008.79 1008.99 1009.16 1009.31 1009.46 1009.62 1009.78 1009.95 1010.12 1010.27 1010.40 1010.48 1010.51 1010.47 1010.36 1010.18 1009.92 1009.60 1009.20 1008.76 1008.27 1007.74 1007.19 1006.62 1006.04 1005.48 1004.92
1004.07 1003.32 1002.75 1002.39 1002.25 1002.35 1002.65 1003.12 1003.74 1004.43 1005.17 1005.91 1006.59 1007.21 1007.73 1008.15 1008.49 1008.74 1008.94 1009.09 1009.22 1009.35 1009.47 1009.60 1009.73 1009.86 1009.97 1010.04 1010.07 1010.05 1009.96 1009.81 1009.59 1009.31 1008.97 1008.58 1008.15 1007.70 1007.22 1006.74 1006.25 1005.76 1005.27 1004.79
1004.24 1003.44 1002.83 1002.44 1002.29 1002.36 1002.65 1003.11 1003.71 1004.40 1005.13 1005.85 1006.53 1007.13 1007.63 1008.04 1008.36 1008.60 1008.77 1008.90 1009.01 1009.11 1009.21 1009.31 1009.42 1009.51 1009.58 1009.62 1009.62 1009.57 1009.45 1009.28 1009.05 1008.77 1008.44 1008.09 1007.71 1007.32 1006.93 1006.53 1006.14 1005.75 1005.36 1004.97
1004.32 1003.53 1002.93 1002.55 1002.40 1002.47 1002.75 1003.21 1003.79 1004.45 1005.14 1005.83 1006.46 1007.02 1007.48 1007.85 1008.13 1008.33 1008.48 1008.58 1008.67 1008.75 1008.84 1008.92 1009.02 1009.10 1009.16 1009.20 1009.19 1009.14 1009.03 1008.87 1008.66 1008.41 1008.13 1007.83 1007.53 1007.22 1006.92 1006.63 1006.35 1006.06 1005.77 1005.47
1004.34 1003.60 1003.05 1002.72 1002.60 1002.69 1002.98 1003.41 1003.97 1004.58 1005.22 1005.84 1006.40 1006.89 1007.28 1007.59 1007.81 1007.97 1008.08 1008.16 1008.23 1008.31 1008.40 1008.49 1008.60 1008.70 1008.79 1008.85 1008.88 1008.86 1008.79 1008.67 1008.51 1008.32 1008.11 1007.89 1007.66 1007.45 1007.24 1007.05 1006.86 1006.67 1006.46 1006.23
1004.30 1003.66 1003.21 1002.95 1002.88 1003.01 1003.30 1003.73 1004.24 1004.79 1005.36 1005.89 1006.36 1006.76 1007.07 1007.30 1007.46 1007.57 1007.65 1007.71 1007.78 1007.87 1007.98 1008.11 1008.25 1008.40 1008.54 1008.66 1008.75 1008.79 1008.79 1008.74 1008.65 1008.54 1008.40 1008.25 1008.11 1007.97 1007.84 1007.72 1007.60 1007.48 1007.33 1007.14
Thickness
5667 5674 5675 5675 5676 5675 5669 5664 5658 5666 5669 5674 5676 5676 5676 5676 5675 5674 5672 5671 5670 5668 5665 5663 5659 5655 5651 5647 5644 5640 5636 5632 5629 5625 5622 5618 5615 5612 5609 5605 5602 5599 5597 5594
5660 5670 5669 5668 5671 5671 5670 5668 5665 5666 5666 5671 5671 5671 5669 5668 5668 5666 5665 5665 5664 5663 5660 5658 5655 5652 5648 5644 5640 5637 5634 5630 5627 5623 5619 5615 5612 5609 5606 5603 5600 5597 5595 5592
5641 5654 5658 5653 5664 5665 5664 5664 5661 5655 5658 5661 5661 5663 5663 5663 5662 5660 5659 5660 5659 5658 5656 5653 5651 5648 5645 5641 5637 5634 5631 5628 5625 5621 5617 5613 5610 5607 5603 5600 5597 5595 5593 5591
5627 5638 5635 5651 5665 5664 5659 5655 5655 5654 5654 5655 5656 5658 5660 5659 5657 5656 5656 5655 5654 5653 5652 5649 5648 5645 5642 5638 5635 5631 5628 5625 5622 5618 5615 5611 5607 5604 5601 5598 5595 5593 5591 5589
5617 5621 5632 5648 5655 5653 5648 5647 5648 5646 5646 5647 5650 5653 5653 5655 5654 5653 5652 5651 5650 5650 5649 5646 5644 5642 5639 5635 5632 5629 5626 5623 5620 5617 5613 5609 5606 5602 5599 5596 5594 5591 5589 5587
5613 5615 5618 5634 5649 5654 5648 5636 5642 5640 5638 5637 5640 5637 5643 5650 5649 5649 5649 5647 5646 5646 5645 5643 5641 5638 5635 5632 5629 5627 5624 5621 5618 5615 5611 5608 5605 5601 5598 5595 5592 5590 5588 5586
5608 5609 5619 5636 5643 5645 5626 5623 5634 5634 5632 5631 5632 5634 5639 5643 5643 5644 5644 5644 5643 5642 5640 5639 5637 5634 5631 5629 5627 5625 5622 5619 5617 5613 5610 5607 5604 5601 5597 5594 5591 5588 5586 5585
5602 5601 5611 5633 5632 5624 5621 5627 5628 5629 5629 5628 5630 5632 5635 5637 5637 5638 5639 5638 5638 5637 5636 5635 5633 5631 5629 5627 5625 5622 5620 5617 5615 5612 5609 5607 5603 5599 5596 5592 5589 5587 5585 5585
5602 5606 5618 5622 5621 5623 5622 5621 5624 5624 5625 5625 5625 5628 5629 5630 5631 5633 5634 5634 5634 5633 5633 5631 5629 5628 5626 5625 5623 5620 5618 5615 5613 5610 5607 5605 5602 5599 5595 5592 5589 5587 5585 5584
5600 5610 5614 5617 5618 5620 5621 5620 5622 5622 5622 5622 5622 5624 5625 5626 5627 5628 5629 5629 5629 5629 5628 5628 5626 5625 5624 5623 5620 5618 5615 5613 5611 5608 5606 5604 5601 5599 5596 5593 5590 5588 5586 5584
5595 5604 5610 5616 5615 5615 5617 5618 5618 5619 5619 5619 5620 5621 5622 5623 5623 5624 5625 5626 5626 5625 5625 5625 5624 5623 5622 5621 5618 5615 5614 5611 5609 5607 5605 5603 5601 5599 5597 5595 5592 5590 5588 5586
5594 5601 5600 5607 5612 5612 5612 5613 5615 5616 5616 5618 5618 5618 5620 5620 5620 5621 5622 5622 5622 5623 5622 5623 5622 5622 5622 5620 5618 5614 5612 5610 5608 5606 5604 5603 5601 5599 5599 5597 5595 5592 5589 5586
5600 5602 5602 5606 5608 5610 5609 5611 5613 5614 5615 5616 5617 5618 5618 5618 5619 5619 5620 5620 5620 5621 5621 5621 5621 5621 5621 5620 5617 5614 5612 5610 5608 5606 5604 5602 5601 5599 5597 5597 5596 5593 5591 5588
5599 5598 5598 5602 5604 5607 5608 5609 5610 5612 5613 5615 5616 5616 5617 5617 5618 5618 5618 5619 5620 5621 5621 5621 5621 5621 5621 5620 5618 5615 5613 5611 5609 5607 5605 5603 5601 5599 5597 5595 5594 5594 5593 5591
5598 5598 5598 5600 5602 5604 5605 5606 5606 5608 5611 5613 5614 5615 5616 5616 5616 5618 5619 5619 5619 5620 5621 5621 5621 5621 5621 5620 5618 5616 5613 5611 5609 5607 5605 5603 5602 5600 5598 5595 5594 5593 5592 5592
5594 5595 5596 5598 5599 5600 5602 5603 5603 5606 5609 5611 5612 5614 5616 5617 5617 5618 5619 5619 5619 5620 5621 5621 5621 5622 5622 5620 5618 5616 5614 5612 5610 5607 5606 5604 5602 5601 5599 5596 5594 5592 5591 5590
5587 5589 5591 5593 5596 5598 5600 5601 5603 5605 5608 5609 5611 5613 5615 5616 5617 5618 5620 5621 5621 5622 5622 5622 5622 5623 5622 5621 5619 5617 5614 5613 5610 5608 5606 5605 5603 5601 5599 5597 5595 5593 5591 5590
5589 5590 5592 5593 5595 5596 5599 5602 5604 5605 5607 5610 5611 5612 5614 5616 5617 5619 5621 5622 5622 5622 5623 5623 5623 5623 5622 5621 5619 5617 5615 5612 5610 5608 5606 5604 5603 5601 5599 5596 5595 5593 5592 5591
5589 5590 5592 5595 5596 5598 5600 5602 5605 5607 5609 5610 5611 5612 5615 5617 5619 5620 5622 5622 5622 5622 5624 5625 5623 5623 5622 5621 5619 5617 5614 5612 5610 5608 5606 5604 5602 5600 5598 5596 5594 5593 5591 5589
5589 5591 5592 5595 5597 5599 5601 5604 5606 5608 5610 5611 5612 5612 5615 5618 5620 5622 5622 5623 5624 5626 5626 5625 5624 5623 5622 5620 5619 5617 5614 5612 5610 5608 5606 5604 5602 5599 5598 5596 5594 5592 5590 5588
5587 5590 5592 5594 5597 5600 5602 5605 5606 5609 5611 5612 5613 5615 5618 5620 5622 5623 5623 5624 5627 5627 5627 5626 5624 5623 5622 5620 5618 5616 5614 5612 5610 5608 5605 5603 5601 5599 5597 5595 5593 5591 5589 5587
5585 5588 5591 5593 5595 5598 5602 5604 5607 5609 5611 5614 5616 5618 5620 5621 5623 5625 5626 5627 5629 5628 5628 5627 5625 5624 5622 5620 5618 5616 5614 5612 5610 5607 5605 5603 5600 5598 5596 5594 5592 5590 5588 5586
5584 5587 5590 5592 5594 5598 5602 5606 5608 5610 5613 5616 5618 5620 5622 5624 5626 5627 5628 5630 5630 5629 5629 5628 5626 5624 5621 5619 5618 5616 5614 5612 5609 5607 5605 5603 5601 5598 5596 5593 5591 5589 5587 5584
5584 5587 5589 5592 5594 5597 5601 5606 5609 5612 5615 5618 5622 5624 5625 5626 5628 5631 5632 5632 5631 5631 5630 5629 5626 5624 5621 5620 5618 5616 5614 5612 5609 5607 5606 5604 5601 5599 5596 5593 5591 5588 5586 5582
5584 5587 5590 5592 5594 5598 5602 5606 5610 5614 5617 5620 5624 5627 5629 5631 5632 5633 5633 5633 5633 5631 5631 5629 5627 5625 5623 5621 5618 5616 5614 5612 5610 5608 5606 5604 5601 5599 5596 5593 5590 5587 5584 5581
5583 5587 5591 5595 5598 5600 5603 5607 5610 5614 5618 5621 5625 5628 5630 5632 5634 5634 5634 5635 5634 5633 5632 5631 5628 5626 5624 5622 5620 5618 5615 5614 5611 5609 5607 5604 5602 5599 5596 5592 5589 5585 5582 5578
5584 5587 5591 5595 5598 5602 5605 5609 5612 5617 5621 5624 5626 5629 5631 5633 5634 5635 5635 5635 5635 5634 5633 5632 5630 5628 5625 5623 5621 5619 5617 5615 5613 5610 5608 5605 5602 5599 5595 5591 5587 5583 5579 5575